STARLINK-5096 (54006 NORAD) Tracking and Keplerian Element Data

This shows tracking and keplerian element data for the satellite.

Feedback or suggestion? Click here.




ElementValue
Catalog54006
NameSTARLINK-5096
Epoch Orbit764
Epoch Day325.25001157
Epoch Year2022
RAAN223.8648
Inclination53.2167
Eccentricity0.0001184
Argument of Perigee134.6735
Mean Anonmoly208.0786
Mean Motion15.49855681
Decay Rate0.00026999
L11 54006U 22125AU 22325.25001157 .00026999 00000+0 48250-3 0 9998
L22 54006 53.2167 223.8648 0001184 134.6735 208.0786 15.49855681 7647



Live tracking and technical data element details for STARLINK-5096 (NORAD 54006). STARLINK-5096 can be tracked NOW for your location showing map with azimuth and elevation plus other details from your city location.







IsCatalogInMostPopularTable: catalog: 54006, numindb: 5
Update: records affected: 1



GetName: 54006 STARLINK-5096

Hit Count: updated at: Mon, 28 Nov 2022 21:21:15 GMT